Location: Goettingen
(51.5300°N, 9.9433°E)
Time: 20:16:45
(UTC+02:00)

ISS - Pass Details

Date: 15 July 2019
Orbit: 409 x 418 km, 51.6° (Epoch: 20 July)

Event Time Altitude Azimuth Distance (km) Brightness Sun altitude
Exits shadow 00:47:57 46° 170° (S) 568 -3.6 -16.4°
Maximum altitude 00:48:09 46° 157° (SSE) 561 -3.6 -16.4°
Drops below altitude 10° 00:51:22 10° 82° (E) 1,483 -1.0 -16.5°
Sets 00:53:30 0° 77° (ENE) 2,345 0.1 -16.5°
